• In Austria
  • List of Countries
  • For 7 days
  • Water Temperature
  • Satellite Maps
  • Weather Map
  • News
  • Weather Widgets
  • user-avatar
    Login

    Hourly Weather Lubango

    Today, 17 December, Sunday

    Time Temperature Precipitation Wind Pressure Humidity
    00:00 +18°C° 1.1 mm 1 mps 609 mmHg 80%
    01:00 +18°C° 1.1 mm 1 mps 608 mmHg 80%
    02:00 +18°C° 0.3 mm 1 mps 608 mmHg 80%
    03:00 +18°C° 0.3 mm 1 mps 608 mmHg 79%
    04:00 +18°C° 0.3 mm 1 mps 608 mmHg 79%
    05:00 +18°C° 0.4 mm 1 mps 608 mmHg 78%
    06:00 +19°C° 0.4 mm 1 mps 609 mmHg 77%
    07:00 +19°C° 0.4 mm 1 mps 609 mmHg 76%
    08:00 +20°C° 0.8 mm 1 mps 610 mmHg 70%
    09:00 +22°C° 0.8 mm 1 mps 610 mmHg 65%
    10:00 +23°C° 0.8 mm 1 mps 611 mmHg 60%
    11:00 +24°C° 1.3 mm 1 mps 611 mmHg 58%
    12:00 +24°C° 1.3 mm 1 mps 610 mmHg 57%
    13:00 +25°C° 1.3 mm 1 mps 610 mmHg 55%
    14:00 +24°C° 1.3 mm 1 mps 610 mmHg 60%
    15:00 +23°C° 1.3 mm 2 mps 609 mmHg 64%
    16:00 +21°C° 1.3 mm 2 mps 609 mmHg 69%
    17:00 +20°C° 1.1 mm 2 mps 609 mmHg 73%
    18:00 +20°C° 1.1 mm 1 mps 609 mmHg 78%
    19:00 +18°C° 1.1 mm 1 mps 609 mmHg 83%
    20:00 +18°C° 1.7 mm 1 mps 609 mmHg 85%
    21:00 +18°C° 1.7 mm 1 mps 609 mmHg 86%
    22:00 +16°C° 1.7 mm 1 mps 610 mmHg 87%
    23:00 +16°C° 0.7 mm 1 mps 609 mmHg 88%

    Tomorrow, 18 December, Monday

    Time Temperature Precipitation Wind Pressure Humidity
    00:00 +16°C° 0.7 mm 1 mps 609 mmHg 88%
    01:00 +16°C° 0.7 mm 1 mps 609 mmHg 89%
    02:00 +15°C° 0.3 mm 1 mps 609 mmHg 89%
    03:00 +15°C° 0.3 mm 1 mps 608 mmHg 89%
    04:00 +15°C° 0.3 mm 1 mps 608 mmHg 89%
    05:00 +15°C° 0.1 mm 1 mps 608 mmHg 87%
    06:00 +16°C° 0.1 mm 1 mps 609 mmHg 85%
    07:00 +16°C° 0.1 mm 1 mps 609 mmHg 83%
    08:00 +19°C° 0.3 mm 1 mps 610 mmHg 76%
    09:00 +20°C° 0.3 mm 1 mps 610 mmHg 69%
    10:00 +21°C° 0.3 mm 2 mps 611 mmHg 63%
    11:00 +20°C° 1.8 mm 2 mps 610 mmHg 66%
    12:00 +20°C° 1.8 mm 2 mps 610 mmHg 70%
    13:00 +20°C° 1.8 mm 1 mps 609 mmHg 73%
    14:00 +20°C° 3.1 mm 1 mps 609 mmHg 76%
    15:00 +19°C° 3.1 mm 1 mps 608 mmHg 78%
    16:00 +19°C° 3.1 mm 1 mps 607 mmHg 80%
    17:00 +18°C° 1.4 mm 1 mps 608 mmHg 82%
    18:00 +18°C° 1.4 mm 1 mps 608 mmHg 84%
    19:00 +16°C° 1.4 mm 1 mps 608 mmHg 87%
    20:00 +16°C° 0.3 mm 1 mps 608 mmHg 88%
    21:00 +16°C° 0.3 mm 1 mps 608 mmHg 89%
    22:00 +16°C° 0.3 mm 1 mps 608 mmHg 90%
    23:00 +15°C° 0 mm 1 mps 608 mmHg 91%

    Day after tomorrow, 19 December, Tuesday

    Time Temperature Precipitation Wind Pressure Humidity
    00:00 +15°C° 0 mm 1 mps 608 mmHg 93%
    01:00 +15°C° 0 mm 1 mps 607 mmHg 94%
    02:00 +14°C° 0.1 mm 0 mps 607 mmHg 94%
    03:00 +14°C° 0.1 mm 0 mps 607 mmHg 94%
    04:00 +14°C° 0.1 mm 0 mps 607 mmHg 94%
    05:00 +14°C° 0.1 mm 0 mps 607 mmHg 92%
    06:00 +14°C° 0.1 mm 0 mps 607 mmHg 89%
    07:00 +15°C° 0.1 mm 0 mps 608 mmHg 87%
    08:00 +16°C° 0.3 mm 0 mps 609 mmHg 82%
    09:00 +17°C° 0.3 mm 0 mps 609 mmHg 77%
    10:00 +20°C° 0.3 mm 1 mps 610 mmHg 72%
    11:00 +21°C° 0.6 mm 1 mps 609 mmHg 70%
    12:00 +21°C° 0.6 mm 1 mps 609 mmHg 68%
    13:00 +21°C° 0.6 mm 2 mps 609 mmHg 66%
    14:00 +20°C° 1 mm 2 mps 608 mmHg 69%
    15:00 +20°C° 1 mm 2 mps 608 mmHg 71%
    16:00 +19°C° 1 mm 2 mps 607 mmHg 74%
    17:00 +18°C° 2.5 mm 2 mps 607 mmHg 77%
    18:00 +17°C° 2.5 mm 2 mps 607 mmHg 81%
    19:00 +16°C° 2.5 mm 1 mps 608 mmHg 85%
    20:00 +16°C° 2.6 mm 1 mps 608 mmHg 87%
    21:00 +16°C° 2.6 mm 1 mps 608 mmHg 88%
    22:00 +15°C° 2.6 mm 1 mps 608 mmHg 90%
    23:00 +15°C° 0.8 mm 1 mps 608 mmHg 90%

    20 December, Wednesday

    Time Temperature Precipitation Wind Pressure Humidity
    00:00 +15°C° 0.8 mm 1 mps 608 mmHg 91%
    01:00 +15°C° 0.8 mm 1 mps 607 mmHg 92%
    02:00 +14°C° 0.1 mm 1 mps 607 mmHg 92%
    03:00 +14°C° 0.1 mm 1 mps 607 mmHg 93%
    04:00 +14°C° 0.1 mm 1 mps 606 mmHg 93%
    05:00 +14°C° 0.1 mm 1 mps 607 mmHg 90%
    06:00 +15°C° 0.1 mm 1 mps 608 mmHg 87%
    07:00 +14°C° 0.1 mm 0 mps 608 mmHg 85%
    08:00 +18°C° 0 mm 1 mps 609 mmHg 78%
    09:00 +19°C° 0 mm 1 mps 609 mmHg 72%
    10:00 +20°C° 0 mm 1 mps 610 mmHg 66%
    11:00 +20°C° 0.1 mm 2 mps 610 mmHg 63%
    12:00 +21°C° 0.1 mm 2 mps 610 mmHg 61%
    13:00 +21°C° 0.1 mm 2 mps 609 mmHg 58%
    14:00 +21°C° 0.2 mm 3 mps 609 mmHg 60%
    15:00 +21°C° 0.2 mm 3 mps 609 mmHg 61%
    16:00 +20°C° 0.2 mm 3 mps 608 mmHg 63%
    17:00 +19°C° 0.3 mm 2 mps 608 mmHg 68%
    18:00 +18°C° 0.3 mm 2 mps 609 mmHg 74%
    19:00 +18°C° 0.3 mm 1 mps 609 mmHg 79%
    20:00 +16°C° 0.1 mm 1 mps 609 mmHg 83%
    21:00 +16°C° 0.1 mm 1 mps 609 mmHg 86%
    22:00 +14°C° 0.1 mm 0 mps 609 mmHg 89%
    23:00 +14°C° 0 mm 0 mps 609 mmHg 90%

    21 December, Thursday

    Time Temperature Precipitation Wind Pressure Humidity
    00:00 +13°C° 0 mm 0 mps 609 mmHg 91%
    01:00 +13°C° 0 mm 0 mps 608 mmHg 92%
    02:00 +13°C° 0 mm 0 mps 608 mmHg 93%
    03:00 +13°C° 0 mm 0 mps 608 mmHg 93%
    04:00 +13°C° 0 mm 0 mps 607 mmHg 93%
    05:00 +13°C° 0 mm 0 mps 608 mmHg 90%
    06:00 +14°C° 0 mm 0 mps 609 mmHg 86%
    07:00 +15°C° 0 mm 0 mps 609 mmHg 82%
    08:00 +19°C° 0 mm 1 mps 610 mmHg 72%
    09:00 +21°C° 0 mm 1 mps 611 mmHg 62%
    10:00 +23°C° 0 mm 1 mps 612 mmHg 52%
    11:00 +23°C° 0.1 mm 2 mps 611 mmHg 51%
    12:00 +24°C° 0.1 mm 2 mps 611 mmHg 50%
    13:00 +24°C° 0.1 mm 3 mps 611 mmHg 49%
    14:00 +22°C° 0.2 mm 3 mps 610 mmHg 52%
    15:00 +22°C° 0.2 mm 3 mps 610 mmHg 54%
    16:00 +22°C° 0.2 mm 3 mps 609 mmHg 56%
    17:00 +20°C° 0 mm 3 mps 609 mmHg 61%
    18:00 +19°C° 0 mm 2 mps 609 mmHg 67%
    19:00 +18°C° 0 mm 2 mps 609 mmHg 72%
    20:00 +18°C° 0 mm 1 mps 609 mmHg 76%
    21:00 +16°C° 0 mm 1 mps 609 mmHg 80%
    22:00 +15°C° 0 mm 1 mps 609 mmHg 84%
    23:00 +14°C° 0 mm 1 mps 609 mmHg 86%

    22 December, Friday

    Time Temperature Precipitation Wind Pressure Humidity
    00:00 +14°C° 0 mm 1 mps 608 mmHg 88%
    01:00 +14°C° 0 mm 1 mps 608 mmHg 89%
    02:00 +13°C° 0 mm 1 mps 608 mmHg 90%
    03:00 +13°C° 0 mm 1 mps 607 mmHg 91%
    04:00 +13°C° 0 mm 1 mps 607 mmHg 92%
    05:00 +14°C° 0 mm 1 mps 608 mmHg 87%
    06:00 +14°C° 0 mm 0 mps 609 mmHg 82%
    07:00 +15°C° 0 mm 0 mps 609 mmHg 77%
    08:00 +19°C° 0 mm 1 mps 610 mmHg 65%
    09:00 +22°C° 0 mm 1 mps 611 mmHg 53%
    10:00 +24°C° 0 mm 1 mps 612 mmHg 41%
    11:00 +25°C° 0 mm 1 mps 612 mmHg 38%
    12:00 +26°C° 0 mm 2 mps 612 mmHg 35%
    13:00 +27°C° 0 mm 2 mps 611 mmHg 32%
    14:00 +26°C° 0 mm 3 mps 611 mmHg 34%
    15:00 +25°C° 0 mm 3 mps 610 mmHg 36%
    16:00 +25°C° 0 mm 3 mps 609 mmHg 38%
    17:00 +22°C° 0 mm 3 mps 609 mmHg 45%
    18:00 +20°C° 0 mm 2 mps 608 mmHg 51%
    19:00 +18°C° 0 mm 2 mps 608 mmHg 58%
    20:00 +17°C° 0 mm 2 mps 608 mmHg 61%
    21:00 +16°C° 0 mm 1 mps 608 mmHg 64%
    22:00 +15°C° 0 mm 1 mps 608 mmHg 68%
    23:00 +15°C° 0 mm 1 mps 608 mmHg 70%
    Show more